Simultaneous Nadir Overpasses (SNOs) Predictions

Prediction of SNOs between AQUA and NOAA-19 Satellite Orbit:

Table of predicted SNOs for the next 14.0 days since TLE Epoch: 1/3/2015
Index Date (AQUA) Time (AQUA) Lat,Lon (AQUA) SZA (AQUA ) Date (NOAA-19) Time (NOAA-19) Lat,Lon (NOAA-19) SZA (NOAA-19 ) Distance(km) Time Diff (sec)
1 01/04/2015 06:29:18 79.23, 57.58 102.96 01/04/2015 06:28:43 79.22, 57.66 102.96 1.91 35
2 01/04/2015 07:18:38 -78.99,-133.31 77.38 01/04/2015 07:19:38 -78.99,-133.32 77.40 0.15 60
3 01/06/2015 11:14:11 80.55, -24.26 104.82 01/06/2015 11:12:58 80.34, -25.14 104.77 28.01 73
4 01/06/2015 12:02:56 -79.09, 154.99 77.46 01/06/2015 12:03:15 -79.09, 155.04 77.47 1.18 19
5 01/08/2015 16:47:15 -79.25, 82.92 77.49 01/08/2015 16:46:54 -79.26, 82.83 77.47 2.12 21
6 01/08/2015 17:36:35 78.98,-107.75 102.12 01/08/2015 17:37:48 78.99,-107.79 102.11 0.99 73
7 01/10/2015 21:31:31 -79.31, 11.48 77.71 01/10/2015 21:30:29 -79.30, 11.61 77.70 2.96 62
8 01/10/2015 22:20:51 79.08,-179.43 101.97 01/10/2015 22:21:24 79.08,-179.36 101.95 1.66 33
9 01/13/2015 03:05:09 79.24, 108.52 101.86 01/13/2015 03:05:03 79.24, 108.50 101.87 0.37 6
10 01/15/2015 07:49:25 79.34, 36.84 101.63 01/15/2015 07:48:40 79.34, 36.82 101.65 0.56 45




NCC Satellite Simultaneous Nadir Overpasses (SNOs) Prediction Service
